Theta_e
289 289 288 287 289 289 289 288 288 289 291 291 292 292 291 292 291 287 287 288 289 291 293 292 293 297 299 305 312 319 317 317 313 318 323 328 330 331 333 327 327 325 319
290 289 288 287 288 288 289 288 288 287 289 291 291 291 290 290 289 286 287 288 289 290 291 291 292 295 296 301 300 317 317 317 315 313 318 320 327 331 332 327 328 326 325
290 288 288 287 287 288 287 287 287 286 287 289 290 290 290 290 288 286 287 288 289 291 291 290 291 293 293 293 294 301 316 317 316 315 314 320 323 328 331 329 327 326 325
289 288 287 287 287 287 287 286 286 287 287 288 290 290 290 290 287 286 286 287 289 291 291 291 290 291 291 291 292 293 311 316 315 315 315 315 319 322 327 327 324 325 324
288 287 286 287 288 287 286 286 288 288 287 288 289 289 289 290 287 286 286 286 289 289 290 290 290 291 291 290 290 291 293 312 315 314 313 314 315 317 320 323 326 326 325
288 287 288 288 287 285 286 287 287 288 287 287 287 287 287 289 288 288 287 287 288 288 288 289 290 290 289 289 289 290 290 292 312 314 313 312 313 316 318 321 324 318 316
288 288 288 287 286 286 286 286 286 287 286 285 285 286 285 287 288 287 287 287 286 286 288 288 288 289 288 288 289 291 293 291 289 305 314 314 314 316 319 318 322 325 324
288 288 288 287 285 285 286 286 286 286 285 285 284 286 285 286 287 287 287 286 286 286 287 287 287 287 287 288 288 289 292 298 295 297 305 313 318 319 320 320 320 323 321
287 287 287 286 285 285 285 285 286 285 285 284 285 285 284 284 286 286 286 285 285 285 287 287 287 287 288 289 287 287 288 290 291 292 293 293 294 297 302 317 317 316 311
287 287 287 285 284 284 285 285 286 286 285 284 283 283 284 284 285 286 286 285 284 285 286 286 287 287 287 287 286 286 285 286 288 289 293 297 299 303 294 311 316 316 311
287 288 286 285 283 284 285 286 285 284 283 283 282 283 282 284 283 286 286 285 284 284 284 285 286 287 288 288 287 285 285 286 286 287 288 289 291 295 299 300 306 314 312
287 287 285 284 283 284 284 282 284 281 280 280 281 280 281 282 284 284 286 286 286 284 284 285 286 287 287 287 286 286 286 286 287 286 286 286 286 286 288 290 294 298 300
286 285 284 283 282 282 283 281 282 280 281 280 280 279 279 281 282 284 285 285 285 284 285 285 286 286 286 286 286 286 286 286 285 285 285 285 285 286 287 287 287 289 291
285 284 283 281 280 282 283 284 281 281 281 281 280 279 279 280 282 282 283 284 284 284 284 284 284 283 284 285 285 286 286 285 285 284 284 285 286 286 287 287 286 287 287
284 283 282 281 280 281 282 282 283 283 283 282 281 280 279 279 282 283 283 283 283 283 283 283 282 282 282 282 283 284 284 285 284 285 285 285 285 286 286 287 287 287 286
282 281 281 279 278 278 278 278 283 284 285 285 284 281 281 283 284 284 283 284 284 283 281 280 279 280 279 281 281 281 282 282 283 284 284 284 284 285 285 286 286 286 285
280 281 280 280 281 278 278 278 276 280 283 284 284 282 282 283 283 282 282 282 282 281 279 279 278 278 279 280 280 280 280 281 282 282 283 283 284 284 285 285 285 285 285
281 282 280 280 279 280 275 275 275 274 274 276 281 281 281 282 282 281 281 280 277 279 278 278 278 278 278 279 279 279 279 279 280 280 281 282 283 284 283 283 284 284 284
281 278 280 279 279 280 277 275 275 274 274 272 276 277 278 281 281 280 280 276 275 276 277 277 278 278 278 278 278 278 278 278 278 278 279 280 281 283 283 284 284 284 284
283 280 278 279 278 278 277 276 276 274 274 274 275 275 278 277 275 275 276 274 274 275 276 276 278 277 277 277 277 276 277 276 277 277 277 278 280 282 282 283 284 283 284
278 278 278 279 278 278 277 277 276 274 273 274 274 275 275 276 275 275 275 273 273 273 275 275 276 275 275 276 277 275 275 275 275 276 277 277 278 280 282 283 284 284 284
279 279 279 278 279 277 276 277 276 275 275 274 273 276 272 274 274 274 274 272 271 273 275 275 275 274 275 275 275 273 274 273 273 274 275 276 278 280 281 281 282 283 283
279 279 278 278 278 276 276 276 275 274 273 273 273 273 273 271 271 272 272 269 271 271 273 273 275 273 274 275 274 273 272 272 272 273 273 274 276 279 280 280 281 281 282
279 278 278 277 276 275 273 270 273 272 273 271 268 270 270 269 265 267 267 266 269 270 270 271 273 272 272 272 272 271 271 271 272 273 273 274 276 278 279 279 280 280 281
279 276 274 274 272 269 268 271 269 267 268 267 266 267 270 268 270 266 263 266 268 268 270 270 271 271 270 270 270 269 269 270 271 271 272 274 276 276 277 278 279 279 280
279 278 276 274 271 269 267 265 265 265 265 266 265 263 264 266 268 263 266 267 268 268 268 269 270 268 268 269 269 268 267 269 270 270 271 274 273 274 275 276 277 278 279
Wind_Speed
7 5 6 7 9 8 5 5 6 8 11 12 12 12 11 11 9 12 14 15 14 13 12 12 11 10 7 9 10 9 8 2 3 3 2 6 13 14 14 11 13 14 14
6 4 6 7 7 8 7 6 7 9 10 11 12 10 11 12 10 12 14 15 14 14 13 13 13 10 10 11 12 12 9 6 6 7 2 2 6 15 17 14 12 12 12
6 6 7 8 7 7 8 9 10 9 11 11 12 10 10 11 12 13 12 14 13 12 13 13 13 12 10 8 10 12 8 6 6 5 4 2 3 4 13 10 11 12 11
6 6 7 7 7 8 7 10 11 9 11 12 12 10 10 9 12 14 14 14 13 12 12 12 12 12 11 13 11 12 9 11 9 9 10 6 4 4 4 10 7 7 10
5 6 6 6 7 9 9 11 11 11 10 10 11 10 11 6 10 16 15 13 13 13 12 11 10 14 17 12 8 10 11 7 9 10 8 6 8 5 5 4 8 9 9
6 5 6 7 9 9 13 12 11 13 11 10 9 10 11 6 21 23 21 12 13 12 12 12 12 15 14 16 15 13 10 8 10 9 9 8 8 4 3 4 6 4 6
7 5 5 6 8 10 12 12 12 12 11 11 10 11 11 11 22 24 25 11 12 11 12 11 12 11 15 16 16 14 8 13 15 6 12 11 8 7 6 9 5 11 11
7 6 5 7 7 9 12 11 11 11 11 11 12 13 10 11 23 25 24 13 12 12 11 11 12 13 15 19 15 13 11 8 9 5 7 5 3 5 7 7 6 6 2
8 6 6 7 7 8 11 11 9 10 10 11 12 14 14 13 24 26 21 12 12 11 11 12 12 14 21 22 13 14 13 10 10 11 12 12 9 6 0 2 7 7 6
6 7 6 6 6 9 10 10 9 9 10 10 11 11 17 13 21 26 22 9 12 9 11 11 17 18 22 23 13 11 11 11 11 12 9 6 4 6 11 8 4 5 5
7 7 6 5 6 7 9 8 8 9 9 9 11 11 11 14 15 26 26 11 10 8 9 10 10 22 21 22 19 13 14 11 9 7 6 6 6 6 4 3 4 6 4
8 6 5 5 6 7 9 7 8 8 6 8 10 10 9 11 19 23 26 23 21 10 10 9 11 22 22 21 16 22 21 13 8 7 6 6 7 6 6 5 4 3 4
7 6 7 8 8 7 9 6 6 6 7 7 8 9 10 10 10 22 23 22 20 11 9 14 18 20 21 16 20 19 14 9 8 8 8 7 6 6 6 4 4 3 2
7 8 8 8 7 8 7 6 6 6 6 7 7 9 9 9 10 11 11 10 16 12 10 10 11 12 13 12 12 12 9 9 7 7 7 6 6 7 7 6 3 2 0
7 8 7 5 5 6 6 7 7 7 8 6 6 8 9 10 12 19 18 11 12 12 9 8 10 11 11 11 10 10 10 10 9 9 8 8 8 7 7 7 6 4 5
5 5 4 4 4 4 4 3 8 12 16 12 12 12 9 15 19 23 24 21 23 19 9 10 11 10 12 12 11 10 10 12 10 9 8 8 8 8 8 7 6 5 5
4 4 4 4 4 4 3 3 5 6 10 12 13 18 20 19 21 23 24 21 21 17 11 9 10 10 10 11 11 11 11 10 11 10 9 9 8 7 8 7 7 7 5
3 4 4 4 3 4 3 3 2 3 5 6 8 14 17 20 20 22 23 15 10 13 10 10 10 10 10 10 10 11 10 11 11 11 11 10 9 8 7 8 7 7 7
3 2 3 4 4 4 2 3 3 3 4 3 5 6 8 14 15 16 19 9 10 10 11 10 9 10 10 10 10 10 10 10 11 10 10 10 10 9 8 7 7 8 7
3 6 4 3 2 3 4 4 4 4 4 3 5 6 8 8 9 9 9 9 9 9 10 10 9 10 10 11 9 10 10 11 11 10 10 10 10 9 8 8 6 6 6
2 3 4 3 3 3 3 4 3 3 4 4 5 5 9 8 8 8 8 9 9 9 9 9 9 10 10 10 10 10 10 10 11 11 10 10 10 9 10 8 7 6 5
0 1 2 2 2 3 3 3 3 3 4 4 4 6 9 5 7 7 8 8 7 8 8 9 8 9 10 11 11 11 11 11 11 11 11 11 10 9 9 9 9 8 7
2 3 2 2 2 3 3 3 3 3 3 4 4 5 6 4 5 6 8 6 8 8 8 8 7 9 9 9 9 11 11 11 12 11 11 11 10 10 9 9 8 8 8
4 4 3 2 2 2 2 2 3 4 4 4 4 4 5 4 4 5 4 4 6 7 6 8 7 10 9 9 8 10 9 10 10 11 14 10 10 11 9 9 9 10 8
4 4 3 3 2 2 3 3 3 3 3 3 3 3 4 3 4 4 3 4 5 6 7 7 6 9 11 11 12 14 14 16 14 15 10 11 12 13 11 9 10 9 10
5 4 3 3 2 2 2 1 2 2 3 2 2 3 3 3 3 3 5 5 7 6 7 6 8 10 10 10 13 15 15 16 14 16 10 9 10 10 10 11 15 9 10
Wind_Direction
351 44 359 337 329 322 290 347 336 332 339 345 340 343 337 339 2 345 332 334 325 327 329 331 320 319 309 275 291 208 222 177 350 304 280 207 204 206 203 196 185 189 192
9 15 347 330 321 343 18 5 350 346 343 345 338 350 342 346 355 346 334 334 326 328 337 334 335 326 324 338 328 217 197 174 188 256 283 289 212 210 214 192 186 193 191
20 359 337 332 343 23 27 2 351 352 342 338 337 350 345 347 350 343 334 331 323 327 340 338 336 337 340 334 322 317 174 179 197 213 256 241 265 230 212 204 183 192 194
16 356 347 353 14 25 14 357 348 351 342 339 333 337 348 338 348 344 343 334 324 338 340 344 342 341 338 338 334 316 280 181 192 217 220 217 224 247 245 210 192 184 190
8 359 351 17 32 18 3 353 346 344 339 330 336 339 350 348 355 349 343 335 337 340 337 339 338 339 342 333 325 307 316 246 193 210 209 213 226 197 202 212 211 190 196
352 0 3 30 28 11 2 350 348 342 343 342 346 349 351 348 2 356 349 336 344 342 339 343 340 338 340 337 325 295 271 282 240 201 224 221 222 211 208 216 216 165 190
342 355 38 38 25 11 0 350 351 345 343 348 350 356 355 357 1 357 351 341 348 341 340 341 344 344 342 346 338 331 301 247 234 290 227 214 216 192 199 211 240 227 207
343 343 53 39 27 9 359 351 350 350 350 351 352 356 356 357 359 357 354 346 351 340 339 343 348 347 349 348 344 348 346 4 9 338 266 279 261 231 207 235 252 267 303
344 354 56 40 27 12 2 352 350 355 357 356 358 355 355 0 358 357 356 345 347 342 348 353 355 350 349 356 356 354 346 350 334 336 306 288 307 258 148 111 243 240 243
357 1 63 39 27 19 356 352 350 356 360 357 354 351 352 352 354 355 357 345 351 344 355 356 0 1 356 0 3 356 356 340 340 347 342 342 334 245 212 220 216 218 201
354 359 65 32 32 10 1 357 358 1 2 357 355 355 348 350 349 354 355 354 353 344 356 357 358 1 2 3 5 2 354 338 344 349 355 1 6 5 357 346 308 214 198
340 12 67 39 28 14 13 352 2 359 351 354 359 359 352 346 352 353 356 356 355 352 352 356 358 2 6 3 3 358 356 352 356 8 14 14 9 2 337 313 280 243 258
345 41 33 41 18 13 2 359 3 347 350 351 2 0 351 347 350 352 355 357 357 353 350 353 358 5 8 7 1 359 1 1 0 9 7 4 355 330 314 339 324 333 261
6 34 24 35 15 4 357 359 358 358 354 354 2 3 348 349 356 357 354 354 355 357 351 357 356 6 16 11 6 8 3 358 358 358 359 343 354 357 0 359 321 353 316
34 23 27 23 354 3 350 348 354 358 358 5 17 4 352 352 1 2 2 2 3 355 358 7 10 8 11 14 9 8 4 359 0 356 360 359 11 6 1 1 355 1 36
27 15 2 336 346 339 336 324 341 356 355 27 39 25 358 356 9 10 8 6 10 7 15 17 13 10 8 7 6 2 4 1 358 355 355 2 7 10 3 5 2 11 11
11 343 343 340 326 316 322 335 351 346 352 349 31 23 10 6 16 19 12 10 13 15 17 13 15 8 5 6 2 359 0 357 350 355 359 358 1 359 7 13 8 8 352
336 327 331 312 298 292 288 302 325 332 346 355 9 12 4 12 15 18 18 9 13 18 16 6 12 6 2 359 4 359 357 355 355 354 357 354 353 357 5 9 9 3 354
321 295 308 298 303 312 327 308 318 339 348 328 351 349 347 355 11 16 21 22 13 5 9 4 13 6 0 353 6 356 354 354 353 351 354 351 348 350 358 359 356 358 355
267 279 297 310 341 13 359 7 356 3 356 354 351 349 350 4 14 15 24 18 10 2 7 359 4 5 356 351 6 357 355 355 355 353 348 345 345 347 351 347 351 352 355
246 267 357 36 40 4 10 9 356 14 357 353 343 356 4 13 10 8 22 18 7 1 2 356 0 2 354 350 5 358 358 350 350 348 345 341 339 346 347 349 346 344 341
357 107 57 62 45 20 12 6 4 13 6 4 340 4 7 13 16 7 18 12 4 358 355 352 355 2 356 348 6 355 350 352 347 344 338 337 340 339 340 349 345 346 336
126 95 65 45 60 37 27 2 7 12 5 4 357 5 5 6 15 9 15 357 356 350 350 352 359 358 358 352 9 355 350 349 340 334 334 333 330 341 346 339 340 342 336
138 119 112 86 60 43 32 7 4 29 17 9 12 5 357 1 9 353 4 338 346 341 343 344 355 357 354 354 5 352 346 337 335 332 332 327 327 342 341 334 342 335 332
133 113 110 109 102 89 33 16 19 26 12 11 6 2 354 1 10 357 336 331 341 334 343 340 347 350 355 349 359 348 340 335 335 333 334 330 341 339 336 336 341 338 340
120 118 118 111 102 99 74 49 6 34 18 353 2 350 354 3 357 346 341 342 345 337 341 337 342 346 348 349 350 343 334 335 337 338 338 342 342 339 340 339 342 342 341